Flag for Germany Weather past 2 weeks in Euskirchen, North Rhine-Westphalia, Germany

Now
54 °F

Partly cloudy.


Feels Like: 52 °F
Forecast: 52 / 65 °F
Wind: 7 mph from Southwest

Location: Noervenich

Current Time: Jul 29, 2015 at 7:47:06 AM

Latest Report: Jul 29, 2015 at 6:20 AM


Visibility: N/A

Pressure: 29.80 "Hg

Humidity: 82%

Dew point: 48 °F

Location of EuskirchenLocation

Historic Weather in Euskirchen — Graph

°F

Euskirchen temperature yesterday

Maximum temperature yesterday: 64 °F (at 1:20 PM)
Minimum temperature yesterday: 55 °F (at 2:20 AM)
Average temperature yesterday: 60 °F

Past Weeks' High & Low Weather Summary

 TemperatureHumidityPressure
High93 °F (Jul 17, 3:20 PM)100% (Jul 19, 4:20 AM)30.12 "Hg (Jul 19, 4:20 AM)
Low50 °F (Jul 26, 3:20 AM)23% (Jul 17, 3:20 PM)29.53 "Hg (Jul 25, 7:20 AM)
Average67 °F72%29.91 "Hg
* Reported Jul 14 6:20 AM — Jul 29 6:20 AM, Euskirchen, Weather by CustomWeather, © 2015

Note: Actual official high and low records may vary slightly from our data, if they occured in-between our weather recording intervals... More about our weather records

Advertising

Euskirchen weather history for previous 24 hours

 ConditionsComfort  
Time TempWeatherWind HumidityBarometerVisibility
6:20 AM
Wed, Jul 29
54 °FPartly cloudy.7 mph82%29.80 "HgN/A
5:20 AM54 °FPassing clouds.7 mph82%29.80 "HgN/A
4:20 AM54 °FPassing clouds.8 mph82%29.80 "HgN/A
3:20 AM54 °FCool.8 mph77%29.80 "HgN/A
2:20 AM55 °FPassing clouds.8 mph77%29.80 "HgN/A
1:20 AM55 °FCool.6 mph72%29.80 "HgN/A
12:20 AM55 °FPassing clouds.6 mph72%29.80 "HgN/A
11:20 PM
Tue, Jul 28
57 °FPassing clouds.7 mph67%29.80 "HgN/A
10:20 PM57 °FPassing clouds.7 mph67%29.80 "HgN/A
9:20 PM61 °FBroken clouds.8 mph59%29.77 "HgN/A
8:20 PM63 °FBroken clouds.10 mph59%29.77 "HgN/A
7:20 PM63 °FBroken clouds.13 mph56%29.77 "HgN/A
6:20 PM64 °FPartly sunny.14 mph52%29.77 "HgN/A
5:20 PM64 °FPartly sunny.16 mph52%29.74 "HgN/A
4:20 PM63 °FBroken clouds.5 mph64%29.74 "HgN/A
3:20 PM63 °FBroken clouds.9 mph64%29.77 "HgN/A
2:20 PM63 °FBroken clouds.15 mph64%29.74 "HgN/A
1:20 PM64 °FBroken clouds.16 mph56%29.74 "HgN/A
12:20 PM63 °FBroken clouds.15 mph59%29.74 "HgN/A
11:20 AM63 °FPartly sunny.15 mph59%29.74 "HgN/A
10:20 AM61 °FBroken clouds.15 mph68%29.71 "HgN/A
9:20 AM59 °FPartly sunny.17 mph72%29.71 "HgN/A
8:20 AM59 °FPartly sunny.15 mph72%29.71 "HgN/A
7:20 AM57 °FScattered clouds.13 mph77%29.68 "HgN/A
Weather by CustomWeather, © 2015

See weather overviewHow to use our weather pages